SL-12 R/B(AUX MOTOR), 32399

Orbit data source: Space-Track

SL-12 R/B(AUX MOTOR), 32399 is space debris in HEO originally from a launch on Tue, 25 Dec 2007 UTC launched from the Tyuratam Missile And Space Complex (TTMTR). Debris objects in space refer to the collection of defunct objects orbiting the Earth. Examples of debris include non-operational satellites, rocket bodies, and fragments generated from explosions, collisions, or faulty payload assembly.

Loading next visibility...
Identifier
32399, 2007-065G
Orbit
HEO
Country
Flag of CISCIS
Related business
Manufacturer
RKKE
Mission
Spacecraft
Bus & Motor
SOZ, Unknown motor
Mass
56 kg wet, 56 kg dry
Launch date (UTC)
2007-12-25 (18 years ago)
Launch vehicle
Unknown
Launch site
Tyuratam Missile And Space Complex (TTMTR)
Object type
Payload
Rocket body
Debris
Shape & HBR
Cyl, 0.6 m
Radar Cross Section
0.660 m², Medium (>0.1 m² and < 1m²)

Expand to show TLE details & history
Last TLE update: 6 days ago

TLE from 6 days ago
0 SL-12 R/B(AUX MOTOR)
1 32399U 07065G   26167.31938473  .00000056  00000-0  94938-4 0  9992
2 32399  65.2029 137.9742 5595583 252.2288  41.6943  4.25010208285918
Epoch: 2026-06-16T07:39Z
TLE epoch observation values (Epoch: 2026-06-16T07:39:54.840Z)
Latitude
-0.00002°
Longitude
118.39056°
Altitude
6,976.058 km
Speed
5.912 km/s
True Right ascension
09h 11m 50s
True Declination
0° 00' 00"
Sunlit
Object was in daylight at epoch
Visualization orbit readout
Latitude
Unknown
Longitude
Unknown
Altitude
Unknown
Speed
Unknown
Apparent Right ascension
Unknown
Apparent Declination
Unknown
Sunlit
N/A
Visualization observer readout
Local Sidereal Time
00:39:50
Azimuth
Unknown
Elevation
Unknown
Doppler factor
Unknown
Orbital elements
Apogee altitude
18,727.632 km
Perigee altitude
712.093 km
Semi-major axis
16,098 km
Eccentricity
0.55956
Inclination
65.2029°
RAAN
137.9742°
Arg. of periapsis
252.2288°
True anomaly
107.85724°
Mean anomaly
41.6943°
Eccentric anomaly
72.22398°
Mean motion
1.06264 °/min
Orbital period
338.78 mins
BSTAR
0.000094938
Loading maneuver chart data...
Computing Atmospheric mass density...
Loading historical data...
Loading historical data...
Loading historical data...
Loading historical data...
Loading historical data...
Loading historical data...
Loading historical data...

Documentation

Showing up to 5 results
|